Home   Weather   Sanikiluaq   Past weeks

Flag for Canada Past Weather in Sanikiluaq, Nunavut, Canada — Yesterday and Last 2 Weeks

Now
30 °F

Overcast.


Feels Like: 19 °F
Forecast: 5 / 27 °F
Wind: 15 mph from East

Location: Kuujjuarapik

Current Time: Apr 27, 2017 at 3:01:32 pm

Latest Report: Apr 27, 2017 at 2:00 pm


Visibility: 9 mi

Pressure: 30.02 "Hg

Humidity: 40%

Dew Point: 9 °F

Location of SanikiluaqLocation

Past Weather in Sanikiluaq — Graph

°F

Sanikiluaq Temperature Yesterday

Maximum temperature yesterday: 14 °F (at 3:00 pm)
Minimum temperature yesterday: 1 °F (at 2:00 am)
Average temperature yesterday: 8 °F

High & Low Weather Summary for the Past Weeks

 TemperatureHumidityPressure
High41 °F (Apr 21, 12:00 pm)100% (Apr 13, 3:00 am)30.52 "Hg (Apr 13, 3:00 am)
Low-4 °F (Apr 16, 6:00 am)31% (Apr 27, 12:00 pm)29.74 "Hg (Apr 23, 9:18 am)
Average14 °F80%30.25 "Hg
* Reported Apr 12 1:01 pm — Apr 27 1:00 pm, Sanikiluaq, Weather by CustomWeather, © 2017

Note: Actual official high and low records may vary slightly from our data, if they occured in-between our weather recording intervals... More about our weather records

Advertising

Sanikiluaq Weather History for the Previous 24 Hours

Scroll right to see more
 ConditionsComfort  
Time TempWeatherWind HumidityBarometerVisibility
1:00 pm
Thu, Apr 27
30 °FOvercast.17 mph34%30.03 "Hg9 mi
12:00 pm30 °FSunny.14 mph31%30.06 "Hg9 mi
11:00 am27 °FSunny.9 mph33%30.11 "Hg9 mi
10:00 am23 °FScattered clouds.10 mph39%30.12 "Hg9 mi
9:00 am21 °FPassing clouds.9 mph42%30.14 "Hg9 mi
8:00 am19 °FSunny.13 mph45%30.16 "Hg9 mi
7:00 am18 °FSunny.16 mph49%30.19 "Hg9 mi
6:00 am16 °FOvercast.21 mph53%30.21 "Hg9 mi
5:00 am14 °FOvercast.16 mph57%30.25 "Hg9 mi
4:00 am14 °FClear.21 mph57%30.24 "Hg9 mi
3:00 am12 °FClear.21 mph62%30.27 "Hg9 mi
2:00 am14 °FClear.22 mph57%30.29 "Hg9 mi
1:00 am14 °FClear.16 mph57%30.33 "Hg9 mi
12:00 am14 °FPassing clouds.8 mph62%30.34 "Hg9 mi
11:00 pm
Wed, Apr 26
9 °FClear.2 mph78%30.36 "Hg9 mi
10:00 pm9 °FClear.2 mph85%30.38 "Hg9 mi
9:00 pm10 °FClear.7 mph79%30.37 "Hg9 mi
8:00 pm12 °FSunny.12 mph79%30.37 "Hg9 mi
7:00 pm14 °FSunny.15 mph73%30.38 "Hg9 mi
6:00 pm14 °FSunny.12 mph73%30.38 "Hg9 mi
5:00 pm14 °FSunny.15 mph73%30.39 "Hg9 mi
4:00 pm14 °FSunny.16 mph73%30.41 "Hg9 mi
3:00 pm14 °FSunny.14 mph67%30.42 "Hg9 mi
Weather by CustomWeather, © 2017

See weather overviewHow to use our weather pages